Regional Weather Roundup
Issued by NWS

Home | Current Version | Previous Version | Graphics & Text | Print | Product List | Glossary On
Versions: 1 2 3 4 5 6 7 8 9 10 11 12 13 14 15 16 17 18 19 20 21 22 23 24 25 26 27 28 29 30 31 32 33 34 35 36 37 38 39 40 41 42 43 44 45 46 47 48 49 50
000
ASUS43 KDTX 011810
RWRMI
MICHIGAN HOURLY REGIONAL WEATHER ROUNDUP
NATIONAL WEATHER SERVICE DETROIT/PONTIAC MI
200 PM EDT WED JUL 01 2015

NOTE: "FAIR" INDICATES FEW OR NO CLOUDS BELOW 12,000 FEET WITH NO
SIGNIFICANT WEATHER AND/OR OBSTRUCTION TO VISIBILITY.

MIZ047>049-052>055-059>063-066>070-074>076-081>083-011900-
SOUTHEAST LOWER MICHIGAN

CITY           SKY/WX    TMP DP  RH WIND       PRES   REMARKS
ADRIAN         CLOUDY    69  57  65 NW8       29.93F
6HR MIN TEMP:  62; 6HR MAX TEMP:  70;

ALMA           CLOUDY    64  56  76 W7        29.94S
ANN ARBOR      PTSUNNY   69  59  70 NW7       29.92S
BAD AXE        CLOUDY    64  58  79 NW5       29.92R
6HR MIN TEMP:  61; 6HR MAX TEMP:  64;

CARO           CLOUDY    66  58  75 W6        29.92R
DETROIT CITY   CLOUDY    70  57  63 NW9       29.90S
6HR MIN TEMP:  63; 6HR MAX TEMP:  71;

DETROIT        CLOUDY    71  60  68 W8G16     29.92R
6HR MIN TEMP:  65; 6HR MAX TEMP:  72;

FLINT          CLOUDY    65  57  75 W12       29.93S
6HR MIN TEMP:  59; 6HR MAX TEMP:  65;

GROSSE ILE     CLOUDY    72  63  73 W7        29.90S
HILLSDALE      MOSUNNY   68  57  68 NW7       29.94F
6HR MIN TEMP:  58; 6HR MAX TEMP:  68;

HOWELL         CLOUDY    63  57  80 W9        29.93S
6HR MIN TEMP:  59; 6HR MAX TEMP:  64;


CITY           SKY/WX    TMP DP  RH WIND       PRES   REMARKS
JACKSON        PTSUNNY   65  56  72 N5        29.94F
6HR MIN TEMP:  59; 6HR MAX TEMP:  67; 6HR PCP:  0.01;

LAMBERTVILLE   PTSUNNY   73  58  61 W10       29.93S
6HR MIN TEMP:  64; 6HR MAX TEMP:  73;

LANSING        CLOUDY    64  55  72 W8        29.95F
6HR MIN TEMP:  57; 6HR MAX TEMP:  64;

LAPEER         CLOUDY    63  56  79 W6        29.92S
MASON          CLOUDY    61  56  83 NW6       29.94F
MONROE         MOSUNNY   73  61  66 W9        29.90F
6HR MIN TEMP:  63; 6HR MAX TEMP:  73;

MT. CLEMENS    PTSUNNY   71  60  67 W9        29.89S
6HR MIN TEMP:  63; 6HR MAX TEMP:  71;

PONTIAC        CLOUDY    65  56  72 W9        29.92R
6HR MIN TEMP:  60; 6HR MAX TEMP:  66;

PORT HOPE        N/A     63  58  83 VRB3      29.90R
6HR MIN TEMP:  60; 6HR MAX TEMP:  63;

PORT HURON     PTSUNNY   68  61  77 W6        29.89F
TRI CITIES     CLOUDY    65  55  70 NW9       29.93S
6HR MIN TEMP:  58; 6HR MAX TEMP:  65;

MIDLAND        CLOUDY    65  54  66 NW3       29.92S
TROY           CLOUDY    68  57  68 NW12      29.93S
SAGINAW HB     CLOUDY    64  55  72 W5        29.93R
$$
MIZ043>046-050>051-056>058-064>065-071>073-077>080-011900-
SOUTHWEST LOWER MICHIGAN

CITY           SKY/WX    TMP DP  RH WIND       PRES   REMARKS
BATTLE CREEK   MOSUNNY   69  54  58 W7        29.95F
6HR MIN TEMP:  58; 6HR MAX TEMP:  69;

BENTON HARBOR  MOSUNNY   61  50  67 N8        29.98F
6HR MIN TEMP:  58; 6HR MAX TEMP:  62;

BIG RAPIDS     CLOUDY    60  49  66 W7        29.95S
6HR MIN TEMP:  52; 6HR MAX TEMP:  61;

COLDWATER      PTSUNNY   69  55  60 W9        29.94F
6HR MIN TEMP:  56; 6HR MAX TEMP:  69;

FREMONT        CLOUDY    59  52  77 NW9       29.97S
6HR MIN TEMP:  52; 6HR MAX TEMP:  60;

HOLLAND        CLOUDY    62  50  64 NW10      29.98S
6HR MIN TEMP:  56; 6HR MAX TEMP:  64;

GRAND RAPIDS   PTSUNNY   67  50  54 SW8       29.95S
6HR MIN TEMP:  55; 6HR MAX TEMP:  67;

IONIA          PTSUNNY   66  51  58 W6        29.94S
KALAMAZOO      SUNNY     69  52  54 NW7       29.95F
6HR MIN TEMP:  57; 6HR MAX TEMP:  70;

LUDINGTON      CLOUDY    56  52  86 N9        29.99F
6HR MIN TEMP:  53; 6HR MAX TEMP:  56;

MARSHALL       PTSUNNY   69  55  60 W3        29.94S
MOUNT PLEASANT CLOUDY    65  54  66 W3        29.93S
6HR MIN TEMP:  55; 6HR MAX TEMP:  65;

MUSKEGON       CLOUDY    60  50  69 W10       29.98R
6HR MIN TEMP:  54; 6HR MAX TEMP:  63;

SOUTH HAVEN    MOSUNNY   60  50  68 NW8       29.98S
$$
MIZ016>042-011900-
NORTHERN LOWER MICHIGAN

CITY           SKY/WX    TMP DP  RH WIND       PRES   REMARKS
ALPENA         CLOUDY    62  56  80 VRB6      29.91S
6HR MIN TEMP:  56; 6HR MAX TEMP:  62;

BEAVER ISLAND  CLOUDY    61  51  70 NW5       29.96R
6HR MIN TEMP:  49; 6HR MAX TEMP:  61;

BELLAIRE       CLOUDY    58  51  79 CALM      29.95F
6HR MIN TEMP:  52; 6HR MAX TEMP:  58;

CADILLAC       CLOUDY    60  52  73 NW7       29.95S
CHARLEVOIX     CLOUDY    56  52  86 N9        29.98F FOG
6HR MIN TEMP:  53; 6HR MAX TEMP:  56;

FRANKFORT      CLOUDY    56  47  71 N5        29.98S
GAYLORD        CLOUDY    56  55  97 W9        29.94R
6HR MIN TEMP:  50; 6HR MAX TEMP:  57;

GRAYLING       CLOUDY    60  53  77 W9        29.94F
6HR MIN TEMP:  51; 6HR MAX TEMP:  60;

HARBOR SPRINGS CLOUDY    57  52  84 SW3       29.94S
HOUGHTON LAKE  CLOUDY    59  53  80 NW8       29.95R
6HR MIN TEMP:  50; 6HR MAX TEMP:  60;

MANISTEE       CLOUDY    54  46  76 NW10      29.99S
OSCODA         CLOUDY    65  56  71 W8        29.90S
PELLSTON       CLOUDY    59  53  80 W9        29.94S
6HR MIN TEMP:  54; 6HR MAX TEMP:  59;

ROGERS CITY    CLOUDY    59  56  90 NW7       29.92S
TRAVERSE CITY  CLOUDY    56  50  80 NW8       29.95F
6HR MIN TEMP:  51; 6HR MAX TEMP:  56; 6HR PCP: TRACE;

$$
MIZ007>008-015-011900-
EASTERN UPPER MICHIGAN

CITY           SKY/WX    TMP DP  RH WIND       PRES   REMARKS
KINROSS        CLOUDY    59  52  77 NW14G20   29.92F
6HR MIN TEMP:  54; 6HR MAX TEMP:  59;

MACKINAC ISLAN CLOUDY    61  56  82 N7        29.93R
6HR MIN TEMP:  54; 6HR MAX TEMP:  61; 6HR PCP:  0.04;

NEWBERRY       FAIR      59  50  72 N9G16     29.96S
S. S. MARIE    CLOUDY    59  49  69 W8        29.92S
6HR MIN TEMP:  53; 6HR MAX TEMP:  59;

MUNISING         N/A     54  46  74 NE12      30.02R
6HR MIN TEMP:  46; 6HR MAX TEMP:  56;

$$
MIZ004>006-011>014-085-011900-
CENTRAL UPPER MICHIGAN

CITY           SKY/WX    TMP DP  RH WIND       PRES   REMARKS
MANISTIQUE     FAIR      61  48  62 N16G23    29.97S
6HR MIN TEMP:  46; 6HR MAX TEMP:  61;

ESCANABA       SUNNY    N/A N/A N/A N9        29.97S
MENOMINEE      PTSUNNY   64  48  55 SE10      29.98S
6HR MIN TEMP:  48; 6HR MAX TEMP:  64;

SAWYER-GWINN   SUNNY     57  41  54 NE15      30.03R
$$
MIZ001>003-009>011-084-011900-
WESTERN UPPER MICHIGAN

CITY           SKY/WX    TMP DP  RH WIND       PRES   REMARKS
IRON MOUNTAIN  SUNNY     66  43  43 N8        29.99S
6HR MIN TEMP:  47; 6HR MAX TEMP:  67;

HOUGHTON       FAIR      64  46  52 SE6       30.01F
6HR MIN TEMP:  51; 6HR MAX TEMP:  65;

COPPER HARBOR    N/A     55  45  68 N9        30.02F
6HR MIN TEMP:  51; 6HR MAX TEMP:  56;

IRONWOOD       FAIR      64  43  45 CALM      30.01R
6HR MIN TEMP:  43; 6HR MAX TEMP:  64;

$$

ABBREVIATIONS USED IN REMARKS
   TC - TEMPERATURE IN CELSIUS
  WCI - WIND CHILL INDEX
   HX - HEAT INDEX
  VSB - VISIBILITY




USA.gov is the U.S. government's official web portal to all federal, state and local government web resources and services.